Location: Larkspur
(54.4391°N, 113.7691°W)
Time: 08:58:34
(UTC+00:00)

RS-44 - Visible Passes

Search period start: 08 December 2023 00:00
Search period end: 18 December 2023 00:00
Orbit: 1174 x 1511 km, 82.5° (Epoch: 07 December)

Date Brightness Start Highest point End Pass type
(mag) Time Alt. Az. Time Alt. Az. Time Alt. Az.
08 Dec ? 02:53:10 10° N 02:54:56 15° NNE 02:54:56 15° NNE visible
08 Dec ? 04:46:06 10° N 04:47:31 17° N 04:47:31 17° N visible
09 Dec ? 03:16:42 10° N 03:18:33 17° N 03:18:33 17° N visible
09 Dec ? 05:09:56 10° NNW 05:11:08 16° NNW 05:11:08 16° NNW visible
10 Dec ? 01:48:25 10° NNE 01:49:36 11° NNE 01:49:36 11° NNE visible
10 Dec ? 03:40:19 10° N 03:42:11 18° N 03:42:11 18° N visible
10 Dec ? 05:33:50 10° NNW 05:34:46 14° NNW 05:34:46 14° NNW visible
11 Dec ? 02:11:23 10° N 02:13:14 14° NNE 02:13:14 14° NNE visible
11 Dec ? 04:04:01 10° N 04:05:50 19° N 04:05:50 19° N visible
11 Dec ? 05:57:50 10° NNW 05:58:25 12° NNW 05:58:25 12° NNW visible
12 Dec ? 02:34:47 10° N 02:36:54 16° NNE 02:36:54 16° NNE visible
12 Dec ? 04:27:47 10° N 04:29:30 19° N 04:29:30 19° N visible
12 Dec ? 06:22:00 10° NNW 06:22:05 10° NNW 06:22:05 10° NNW visible
13 Dec ? 02:58:18 10° N 03:00:34 19° NNE 03:00:34 19° NNE visible
13 Dec ? 04:51:36 10° NNW 04:53:09 18° NNW 04:53:09 18° NNW visible
14 Dec ? 01:29:51 10° NNE 01:31:39 12° NNE 01:31:39 12° NNE visible
14 Dec ? 03:21:57 10° N 03:24:15 21° N 03:24:15 21° N visible
14 Dec ? 05:15:31 10° NNW 05:16:51 16° NNW 05:16:51 16° NNW visible
15 Dec ? 01:52:57 10° N 01:55:22 15° NNE 01:55:22 15° NNE visible
15 Dec ? 03:45:39 10° N 03:47:57 22° N 03:47:57 22° N visible
15 Dec ? 05:39:33 10° NNW 05:40:33 14° NNW 05:40:33 14° NNW visible
16 Dec ? 02:16:21 10° N 02:19:05 19° NNE 02:19:05 19° NNE visible
16 Dec ? 04:09:25 10° NNW 04:11:41 22° N 04:11:41 22° N visible
16 Dec ? 06:03:47 10° NNW 06:04:16 12° NNW 06:04:16 12° NNW visible
16 Dec ? 15:07:54 10° E 15:11:35 14° ENE 15:15:10 10° NE visible
17 Dec ? 02:39:55 10° N 02:42:49 22° NNE 02:42:49 22° NNE visible
17 Dec ? 04:33:15 10° NNW 04:35:25 21° NNW 04:35:25 21° NNW visible
